RH
52 51 54 69 77 69 59 49 50 42 36 36 39 39 33 26 30 31 30 29 29 29 30 31 31 31 31 32 32 33 34 35 36 37 37 35 35 34 32 31 31 32 32
53 54 54 61 89 62 55 49 51 43 40 39 42 39 38 28 30 32 34 32 32 34 35 37 38 37 36 36 37 37 38 38 37 36 35 36 37 38 38 38 36 34 33
58 58 56 65 68 61 59 59 54 43 43 43 45 39 39 38 29 33 34 33 33 34 36 36 36 37 36 36 35 35 34 33 34 33 33 34 35 36 37 38 37 37 39
62 58 62 62 68 66 62 62 52 46 52 52 52 47 44 43 34 28 32 33 33 34 34 34 34 36 36 35 34 33 32 30 30 30 30 30 30 31 34 34 34 36 39
61 59 66 65 67 66 63 56 52 51 59 56 62 52 52 56 42 28 28 28 30 30 31 33 33 33 31 29 29 28 28 30 32 34 36 38 37 40 42 37 34 35 39
60 57 66 70 71 67 63 53 55 55 62 60 61 62 66 60 38 28 27 28 29 31 33 35 35 35 37 35 32 34 38 38 37 36 33 35 36 37 39 44 44 42 49
60 58 62 64 68 68 63 56 54 54 66 63 61 58 58 63 38 30 31 32 34 34 37 43 44 42 34 36 37 35 38 36 41 37 35 42 37 34 38 38 33 35 35
64 64 59 57 61 70 66 62 62 62 62 67 63 63 53 46 36 33 35 36 36 37 42 43 48 46 44 38 36 32 35 33 33 31 22 22 19 16 18 20 24 28 32
66 65 60 53 53 67 67 70 66 61 62 65 62 65 55 48 38 37 38 43 45 47 51 50 48 50 40 40 38 32 28 33 37 23 20 16 13 12 12 12 12 13 16
61 66 67 61 59 65 70 71 63 60 58 63 62 65 59 49 48 42 44 46 45 42 46 44 45 41 43 35 33 35 29 34 29 23 16 12 11 11 11 10 10 10 11
49 66 68 72 68 60 64 66 61 61 56 60 55 57 56 46 47 49 45 45 49 50 50 51 48 43 36 30 33 27 33 30 25 16 12 11 10 10 9 9 9 9 10
38 48 60 65 72 68 70 69 69 56 57 59 54 50 51 52 44 44 45 46 49 46 44 43 45 35 36 34 30 33 33 23 14 11 10 10 9 10 11 11 11 11 12
33 36 54 73 84 80 73 67 64 57 54 54 53 51 55 55 48 48 47 50 51 52 50 45 43 36 35 35 34 32 27 17 12 11 11 13 14 15 14 14 14 14 14
46 42 54 63 72 69 66 64 57 53 51 50 54 54 62 56 53 56 61 59 59 54 53 52 46 41 39 34 34 30 21 14 11 12 15 18 16 16 16 16 17 19 19
63 52 49 52 62 72 73 62 56 50 53 57 60 62 69 67 63 80 68 62 51 51 56 69 57 45 38 34 33 32 19 14 12 14 20 19 18 18 18 19 22 23 24
88 72 56 51 55 58 57 59 54 51 56 61 64 69 78 71 62 58 52 48 48 59 70 67 51 46 44 41 42 34 16 12 14 22 23 22 23 24 26 27 30 32 36
98 91 74 61 52 50 50 57 60 58 58 66 75 74 85 77 79 68 59 63 65 83 81 71 57 58 59 41 36 30 14 14 18 28 26 28 30 29 35 37 42 42 42
100 100 90 80 60 53 54 54 60 60 63 85 81 86 84 100 100 83 82 88 83 85 84 71 67 79 46 40 31 19 15 16 27 33 30 34 34 32 34 36 38 40 41
100 100 100 98 85 74 66 61 68 74 75 87 98 93 100 100 84 93 92 87 92 100 87 70 79 59 62 42 32 16 16 21 32 34 34 36 41 41 37 39 37 37 39
77 98 100 100 96 88 87 79 79 89 86 90 100 100 100 98 96 93 93 89 93 95 84 70 75 80 64 38 26 16 19 27 31 33 36 38 40 36 37 38 41 47 47
68 95 100 100 100 100 100 98 100 94 100 100 100 100 100 100 99 100 92 98 95 88 89 87 93 83 52 36 20 16 24 26 27 33 38 38 40 42 42 41 44 46 53
95 100 100 100 100 100 100 100 100 100 100 100 100 100 100 100 100 100 98 99 95 87 93 93 81 70 43 31 18 17 26 24 26 33 36 37 42 40 43 48 54 63 64
100 100 100 100 100 100 100 100 100 100 100 100 100 100 100 100 100 100 99 94 93 94 97 91 80 54 38 24 18 20 26 23 26 28 33 37 40 44 49 54 56 55 52
99 100 100 100 100 100 100 100 100 100 100 100 100 100 100 100 100 98 88 87 86 98 95 88 67 46 27 21 21 26 27 24 26 32 36 37 43 48 53 49 46 47 48
100 100 100 100 100 100 100 100 100 100 100 100 100 96 87 100 100 87 80 87 93 98 98 74 53 32 22 24 26 31 30 26 28 35 48 43 51 42 39 40 48 56 61
91 100 100 100 100 100 100 100 100 100 93 93 100 98 100 98 81 81 86 84 100 100 78 56 28 21 25 30 31 34 34 34 33 34 38 39 41 40 48 57 55 66 74
Wind_Speed
26 26 27 29 28 28 26 25 25 27 25 22 21 18 19 19 17 16 14 15 15 14 12 12 12 14 16 19 21 23 26 27 28 29 30 32 33 34 35 36 36 37 37
28 28 28 28 29 28 27 28 27 28 24 22 18 18 20 20 18 17 16 14 15 14 14 15 16 19 21 23 26 28 30 32 34 35 36 37 38 39 40 41 42 43 43
28 28 28 27 29 28 28 25 27 26 27 22 16 17 20 21 21 19 19 17 18 18 18 20 22 24 26 28 31 33 35 37 39 40 42 44 45 46 46 46 48 47 48
29 29 28 28 27 26 26 26 27 25 26 23 17 19 20 22 23 22 20 20 20 22 23 25 27 29 31 34 35 37 39 40 43 45 47 48 49 49 51 52 52 53 52
30 29 28 28 27 26 26 26 25 25 26 24 21 21 24 27 26 26 23 23 22 23 25 26 28 30 32 35 38 39 41 44 47 48 50 52 53 56 56 57 56 55 56
30 30 29 29 29 28 26 26 25 26 27 27 25 27 27 28 26 25 25 26 23 24 26 29 32 34 36 38 40 42 46 49 50 51 52 55 55 54 53 55 58 54 56
31 31 30 30 30 29 28 27 26 27 28 29 27 27 30 28 29 28 28 28 28 30 32 34 36 37 39 42 45 48 51 54 57 57 54 56 56 53 54 54 52 51 50
33 33 32 32 32 31 30 30 29 29 30 30 30 30 30 31 29 29 30 30 31 34 36 39 41 41 45 47 49 53 55 57 57 56 50 49 49 50 50 51 52 51 51
35 35 34 33 33 32 32 33 33 33 32 31 30 31 32 32 31 32 32 35 36 38 41 43 45 47 49 52 54 58 58 60 58 51 52 51 52 54 56 56 54 55 54
34 36 37 36 36 36 34 35 35 36 32 32 32 31 33 33 34 35 35 37 39 42 43 45 46 49 51 56 58 60 60 59 56 53 51 53 57 57 57 58 57 56 57
35 38 38 39 39 36 36 36 37 35 32 32 33 33 35 37 37 38 39 39 41 44 46 48 49 52 55 59 60 59 60 57 56 54 56 57 56 55 56 57 59 59 60
37 38 37 38 39 38 38 38 38 34 33 33 34 35 37 41 42 42 42 43 45 47 48 50 52 56 58 63 63 61 60 56 55 58 59 56 55 54 54 55 57 57 57
39 39 40 41 41 41 38 36 36 35 34 33 35 37 40 43 44 43 44 46 47 50 52 53 56 59 63 65 64 62 59 57 60 61 57 53 51 48 46 44 43 43 43
41 41 41 41 39 38 38 37 37 36 35 36 37 39 41 42 45 44 47 50 51 53 53 56 59 62 65 67 64 64 59 62 61 57 52 47 40 38 35 33 31 29 29
45 44 44 43 41 40 40 40 39 38 37 39 40 43 43 45 46 48 51 54 54 54 56 58 61 64 66 66 67 68 65 64 60 55 47 38 33 30 26 22 20 18 17
48 47 47 46 46 45 44 42 40 39 40 41 41 44 45 48 50 51 54 54 55 57 58 62 65 67 66 69 70 71 68 63 61 52 42 33 30 27 25 22 18 15 12
48 49 48 47 47 46 45 43 42 41 42 43 44 46 48 48 51 54 57 57 59 60 61 63 66 67 69 71 74 71 69 66 62 49 35 29 26 20 17 13 11 11 11
51 50 49 48 48 47 45 43 43 43 41 43 45 47 48 49 53 57 58 60 61 62 62 64 66 68 71 74 72 72 68 66 56 45 33 26 21 18 18 16 16 15 16
58 54 51 51 51 50 48 47 47 46 44 45 47 49 47 54 58 59 60 61 62 61 62 64 66 69 73 75 75 72 69 63 53 43 32 27 24 24 22 20 20 21 22
62 59 57 55 53 51 51 50 49 48 47 46 47 49 53 57 61 61 61 62 62 62 64 66 68 69 74 74 73 70 66 60 52 40 33 29 28 29 28 26 26 28 29
64 63 60 58 55 53 53 51 50 49 45 46 50 53 57 60 61 63 63 63 62 63 64 66 69 72 74 74 72 68 59 55 47 36 31 30 30 30 29 29 32 35 36
64 64 62 59 55 53 53 50 47 48 49 51 54 57 60 62 64 64 64 63 62 63 66 68 70 73 74 73 69 64 53 50 41 34 28 29 30 30 31 33 35 38 42
63 62 61 58 55 53 52 48 47 50 53 56 57 60 62 63 65 64 65 63 62 63 67 71 73 74 75 73 67 60 49 45 39 30 28 29 30 32 35 38 40 43 45
59 60 59 56 55 54 50 48 49 54 56 57 61 62 62 65 64 64 64 64 61 65 70 70 74 76 76 70 66 58 46 41 32 31 32 32 34 36 40 44 45 44 45
57 59 58 56 55 53 51 50 53 56 60 62 62 63 64 65 65 65 63 61 63 67 69 73 76 75 71 69 66 57 46 40 35 35 37 38 42 45 44 43 43 47 48
50 54 55 56 56 53 50 52 56 60 62 61 63 65 65 65 64 61 60 61 64 68 72 75 74 73 70 69 65 56 50 45 43 43 44 46 43 45 46 49 49 50 51
Wind_Direction
265 264 267 269 276 280 290 304 303 310 308 310 310 303 320 321 319 324 325 332 334 332 326 319 307 295 290 286 286 285 285 286 286 286 285 285 285 285 284 282 281 280 278
262 261 265 268 271 279 289 297 301 305 308 310 298 293 313 323 316 313 317 316 317 315 307 303 297 295 293 292 290 290 290 290 291 291 290 289 288 286 284 284 283 280 277
260 262 264 267 271 281 291 298 298 299 308 312 292 292 304 316 314 309 306 308 308 303 299 300 300 298 295 293 292 291 291 290 289 288 288 288 286 285 284 284 282 281 280
259 260 263 266 271 280 288 292 296 295 307 308 295 287 301 304 312 304 301 302 303 304 304 303 302 300 297 295 294 294 294 293 291 291 291 289 288 286 283 282 281 279 277
259 259 262 267 272 278 283 287 290 294 303 306 294 295 297 304 304 303 300 303 301 305 304 301 302 301 302 300 298 297 296 295 294 292 292 293 292 290 286 284 283 281 276
257 258 260 265 271 275 278 282 284 287 300 305 292 292 296 300 301 299 300 300 300 305 304 300 298 298 300 301 304 300 299 298 301 296 292 289 289 285 285 282 279 278 275
255 257 260 263 267 272 276 279 282 287 297 301 296 290 296 298 300 298 296 295 295 294 296 302 305 306 308 306 303 304 303 303 301 302 299 295 291 290 287 283 278 275 274
253 255 260 263 265 266 272 277 282 286 296 296 294 288 297 298 296 297 296 292 289 295 296 301 304 308 308 308 307 307 307 307 306 305 303 298 297 291 287 282 278 275 269
251 253 257 262 266 265 267 274 280 286 292 291 291 290 297 298 297 297 296 295 296 297 295 296 303 305 307 308 309 312 311 311 309 307 303 300 298 296 292 285 278 275 272
249 253 256 259 266 267 266 272 277 285 287 290 289 288 291 295 296 294 292 293 295 299 300 303 306 306 308 309 311 312 313 313 311 306 303 298 298 295 288 279 274 272 270
248 251 256 259 264 265 270 271 277 283 285 288 288 288 291 296 297 295 293 293 296 300 301 305 307 307 308 311 313 314 315 314 311 306 305 302 298 291 284 278 272 271 270
250 252 255 257 261 264 270 272 278 280 282 285 289 290 291 295 299 298 295 296 298 301 305 308 309 310 310 313 316 315 317 315 311 310 309 304 298 293 286 279 276 273 271
252 253 255 257 260 265 268 271 275 278 281 286 288 291 293 296 298 298 298 298 301 303 307 308 309 311 313 314 315 319 318 317 316 315 313 308 301 296 292 288 285 282 278
252 253 255 257 261 263 265 270 273 278 282 286 288 290 294 296 297 299 298 301 302 303 305 307 310 312 312 315 317 321 318 319 318 319 317 310 305 303 300 295 292 289 286
249 253 255 257 259 262 265 270 274 280 284 285 288 292 294 298 298 297 299 301 304 304 305 307 309 310 315 317 320 321 321 320 321 323 319 313 312 313 313 314 315 314 310
246 250 252 256 259 262 266 268 274 280 283 286 289 291 294 297 296 299 301 304 306 307 307 308 312 314 317 319 321 322 322 322 324 323 320 317 323 325 325 327 328 328 333
247 249 251 256 259 262 265 268 272 277 283 285 287 292 295 295 296 301 303 305 306 307 307 310 313 314 315 319 321 323 322 322 324 321 316 319 321 317 320 317 313 314 319
244 247 251 255 257 261 265 269 272 278 284 284 289 291 293 290 293 298 301 303 304 306 308 310 313 312 316 320 322 323 322 321 320 317 309 310 304 301 300 295 292 294 305
246 249 252 255 257 261 264 268 272 278 284 284 287 289 288 288 294 298 299 302 304 306 307 309 309 312 316 320 322 321 320 317 315 310 297 294 289 293 293 298 302 301 305
245 249 252 255 257 261 264 267 272 277 283 285 284 285 285 288 294 297 299 302 303 305 307 308 308 311 315 317 320 320 319 315 311 302 291 286 290 295 292 295 300 304 305
244 247 249 253 257 261 264 270 274 280 282 280 281 284 284 288 293 295 299 301 302 303 305 306 307 310 313 316 318 319 318 313 308 295 286 283 286 290 291 293 300 305 306
242 244 248 252 257 263 267 271 275 278 278 278 279 281 284 289 292 296 299 301 302 303 304 304 305 309 312 315 317 319 317 310 303 293 284 282 283 288 293 297 299 299 298
240 244 248 252 256 261 267 271 274 275 274 277 279 282 287 289 292 295 297 298 300 302 302 304 306 309 312 314 315 320 314 306 299 289 282 285 287 290 293 294 293 295 298
240 243 247 252 257 261 266 268 272 272 274 276 278 282 287 289 292 294 296 297 298 300 302 304 306 310 313 314 316 318 309 302 294 288 291 288 286 288 290 293 296 296 298
237 241 245 251 256 260 264 267 268 269 272 277 280 284 286 291 292 294 294 296 298 299 301 304 307 310 312 315 315 311 302 298 293 289 288 285 287 290 291 291 295 298 298
240 242 245 249 253 258 262 263 267 270 273 279 282 285 289 291 292 291 293 296 297 299 302 305 307 310 313 313 312 305 298 293 289 285 284 288 289 290 292 295 296 295 295